Location: ???????????
(55.5758°N, 38.4970°E)
Time: 18:28:22
(UTC+00:00)

CBERS-1 - Pass Details

Date: 15 November 2025
Orbit: 765 x 772 km, 98.8° (Epoch: 14 December)

Event Time Altitude Azimuth Distance (km) Brightness Sun altitude
Rises 03:33:32 0° 17° (NNE) 3,264 7.3 -12.0°
Reaches altitude 10° 03:35:51 10° 19° (NNE) 2,332 6.5 -11.7°
Maximum altitude 03:41:00 77° 106° (ESE) 797 4.2 -11.0°
Drops below altitude 10° 03:46:07 10° 193° (SSW) 2,312 6.6 -10.3°
Sets 03:48:25 0° 194° (SSW) 3,233 7.3 -10.0°
